World > North America > United States > Texas > Comby

Hourly Comby, TX Regional Weather

Feedback E-mail the Weather

Quick WX

Comby, TX Weather Maps

°F °C°F °C
Comby Weather Map
UTC Time: 8/17/2022, 17:34
Your Time:

Comby, TX Regional Weather

Expires:202208171800;;206686
ASUS44 KSJT 171715
RWRSJT
WEST CENTRAL TEXAS REGIONAL WEATHER ROUNDUP
NATIONAL WEATHER SERVICE SAN ANGELO TX
1200 PM CDT WED AUG 17 2022

NOTE: "FAIR" INDICATES FEW OR NO CLOUDS BELOW 12,000 FEET WITH NO
SIGNIFICANT WEATHER AND/OR OBSTRUCTIONS TO VISIBILITY.


TXZ229-232-234-239-242-243-245-247-249-250-
253-255-257-343-347-443-171800-
TEXAS COASTAL BEND, RIO GRANDE PLAINS DEEP SOUTH TEXAS
  
CITY           SKY/WX    TMP DP  RH WIND       PRES   REMARKS
VICTORIA       MOSUNNY   91  73  55 VRB6      30.00F                  
BEEVILLE       PTSUNNY   89  73  58 S5        30.00S                  
ROCKPORT       SUNNY     92  77  61 SE13      29.98F                  
PORT ARANSAS   MOSUNNY   87  78  73 SE7       30.01R                  
PORT LAVACA    PTSUNNY   93  69  46 SE3       29.99F                  
CORPUS CHRISTI PTSUNNY   91  79  67 S10       29.98S                  
KINGSVILLE NAS MOSUNNY   94  77  57 VRB6      29.98S                  
COTULLA        MOSUNNY   90  72  55 S6        30.00F                  
LAREDO         MOSUNNY   90  74  59 S12       29.98F                  
BROWNSVILLE    MOSUNNY   94  76  55 SE10G21   29.96S                  
PORT ISABEL    PTSUNNY   92  79  65 E16       29.96F                  
HEBBRONVILLE   SUNNY     90  71  54 S6G16     30.00F                  
MCALLEN        MOSUNNY   92  73  53 SE10G16   29.97S                  
WESLACO        NOT AVBL                                         

SKY/WX - Weather  TMP - Temperature  DP - Dew Point  RH - Humidity
WIND - Wind Direction/Speed PRES - Barometric Pressure VSB - Visibility
WCI - Wind Chill Index E13G22 Wind - East Wind 13 mph/Gusts of 22 mph

Trending Headlines

Comby Radar Loop



Comby Quick Facts


National Two Day Weather Forecast


E-mail the Comby Weather Forecast

Voice your opinion or tell us about page issues...